This is the latest recevied weather packets stored in our database for station/object KG7BDA. If no packets are shown the sender has not sent any weather packets the latest 10 day(s).
| Time | Temp. | Humidity | Pressure | Rain* | Wind** | Luminosity | Snow |
|---|---|---|---|---|---|---|---|
| 1777743587 | 20° C | 33% | 1017.6 hPa | 0 mm | - | - | - |
| 1777743554 | 20° C | 33% | 1017.6 hPa | 0 mm | - | - | - |
| 1777743409 | 20° C | 34% | 1017.6 hPa | 0 mm | - | - | - |
| 1777743193 | 20° C | 34% | 1017.6 hPa | 0 mm | - | - | - |
| 1777742833 | 19.44° C | 35% | 1017.5 hPa | 0 mm | - | - | - |
| 1777742474 | 19.44° C | 34% | 1017.6 hPa | 0 mm | - | - | - |
| 1777742113 | 18.89° C | 36% | 1017.5 hPa | 0 mm | - | - | - |
| 1777741753 | 18.89° C | 37% | 1017.7 hPa | 0 mm | - | - | - |
| 1777741394 | 18.89° C | 40% | 1017.7 hPa | 0 mm | - | - | - |
| 1777741034 | 18.33° C | 41% | 1017.6 hPa | 0 mm | - | - | - |
| 1777740673 | 17.78° C | 42% | 1017.7 hPa | 0 mm | - | - | - |
| 1777740314 | 17.22° C | 44% | 1017.7 hPa | 0 mm | - | - | - |
| 1777739953 | 16.67° C | 43% | 1017.7 hPa | 0 mm | - | - | - |
| 1777739593 | 16.11° C | 46% | 1017.7 hPa | 0 mm | - | - | - |
| 1777739299 | 15.56° C | 45% | 1017.8 hPa | 0 mm | - | - | - |
| 1777739233 | 15.56° C | 45% | 1017.8 hPa | 0 mm | - | - | - |
| 1777738874 | 15° C | 46% | 1017.9 hPa | 0 mm | - | - | - |
| 1777738514 | 15° C | 45% | 1017.9 hPa | 0 mm | - | - | - |
| 1777738153 | 14.44° C | 45% | 1017.9 hPa | 0 mm | - | - | - |
| 1777737433 | 13.89° C | 46% | 1017.7 hPa | 0 mm | - | - | - |
| 1777737074 | 13.33° C | 48% | 1017.7 hPa | 0 mm | - | - | - |
| 1777736713 | 13.33° C | 48% | 1017.7 hPa | 0 mm | - | - | - |
| 1777736353 | 13.33° C | 49% | 1017.8 hPa | 0 mm | - | - | - |
| 1777735993 | 13.33° C | 50% | 1017.8 hPa | 0 mm | - | - | - |
| 1777735633 | 13.33° C | 51% | 1017.6 hPa | 0 mm | - | - | - |
* Rain latest hour (hover to see other rain measurements)
** Current wind speed in m/s (hover to see current wind gust speed)